Weather History for KMYR - May, 2013

Change the Weather History Date:

Tuesday, May 14, 2013

  Actual Average Record
Temperature  
Mean Temperature 58 °F -  
Max Temperature 69 °F 76 °F 94 °F (1956)
Min Temperature 48 °F 59 °F 45 °F (1952)
Degree Days  
Heating Degree Days 6    
Growing Degree Days 8 (Base 50)    
Moisture  
Dew Point 43 °F    
Average Humidity 60    
Maximum Humidity 87    
Minimum Humidity 35    
Precipitation  
Precipitation 0.00 in - - ()
Sea Level Pressure  
Sea Level Pressure 30.18 in    
Wind  
Wind Speed 5 mph (SE)    
Max Wind Speed 17 mph    
Max Gust Speed -    
Visibility 10 miles    
Events      
Averages and records for this station are not official NWS values.
T = Trace of Precipitation, MM = Missing Value Source: NWS Daily Summary

Daily Weather History Graph

Daily Weather History Graph

Search for Another Location

Airport or City:

Trip Planner

Search our weather history database for the weather conditions in past years. The results will help you decide how hot, cold, wet, or windy it might be!

Date:

Astronomy

May. 14, 2013 Rise Set
Actual Time 6:15 AM EDT 8:09 PM EDT
Civil Twilight 5:48 AM EDT 8:36 PM EDT
Nautical Twilight 5:14 AM EDT 9:09 PM EDT
Astronomical Twilight 4:39 AM EDT 9:45 PM EDT
Moon 9:53 AM EDT (5/14) 11:56 PM EDT (5/14)
Length of Visible Light 14h 48m
Length of Day
13h 53m
Waxing Crescent, 19% of the Moon is Illuminated
May 14
Waxing Crescent
May 18
First Quarter
May 25
Full
May 31
Last Quarter
Jun 8
New

Hourly Weather History & Observations

Time (EDT) Temp. Dew Point Humidity Pressure Visibility Wind Dir Wind Speed Gust Speed Precip Events Conditions
12:15 AM 51.8 °F 42.8 °F 71% 30.15 in 10.0 mi Calm Calm - N/A   Clear
12:35 AM 51.8 °F 42.8 °F 71% 30.15 in 10.0 mi Calm Calm - N/A   Clear
12:55 AM 50.0 °F 42.8 °F 76% 30.15 in 10.0 mi Calm Calm - N/A   Scattered Clouds
1:15 AM 51.8 °F 41.0 °F 67% 30.15 in 10.0 mi Calm Calm - N/A   Partly Cloudy
1:35 AM 48.2 °F 41.0 °F 76% 30.15 in 10.0 mi Calm Calm - N/A   Partly Cloudy
1:55 AM 48.2 °F 42.8 °F 82% 30.15 in 10.0 mi Calm Calm - N/A   Clear
2:15 AM 50.0 °F 42.8 °F 76% 30.15 in 10.0 mi Calm Calm - N/A   Clear
2:35 AM 48.2 °F 44.6 °F 87% 30.15 in 10.0 mi Calm Calm - N/A   Clear
2:55 AM 50.0 °F 44.6 °F 82% 30.15 in 10.0 mi North 3.5 mph - N/A   Clear
3:15 AM 48.2 °F 44.6 °F 87% 30.15 in 10.0 mi Calm Calm - N/A   Clear
3:35 AM 48.2 °F 44.6 °F 87% 30.15 in 10.0 mi Calm Calm - N/A   Clear
3:55 AM 48.2 °F 44.6 °F 87% 30.16 in 10.0 mi North 8.1 mph - N/A   Clear
4:15 AM 48.2 °F 44.6 °F 87% 30.17 in 10.0 mi NNE 9.2 mph - N/A   Clear
4:35 AM 51.8 °F 42.8 °F 71% 30.17 in 10.0 mi NNE 8.1 mph - N/A   Clear
4:55 AM 51.8 °F 41.0 °F 67% 30.18 in 10.0 mi NE 9.2 mph - N/A   Clear
5:15 AM 51.8 °F 39.2 °F 62% 30.18 in 10.0 mi NE 10.4 mph - N/A   Clear
5:35 AM 51.8 °F 39.2 °F 62% 30.19 in 10.0 mi NNE 8.1 mph - N/A   Clear
6:45 AM 51.8 °F 39.2 °F 62% 30.19 in 10.0 mi NNE 15.0 mph - N/A   Clear
7:45 AM 55.4 °F 37.4 °F 51% 30.22 in 10.0 mi NE 9.2 mph - N/A   Clear
8:45 AM 62.6 °F 37.4 °F 39% 30.25 in 10.0 mi ENE 11.5 mph - N/A   Clear
9:48 AM 64.4 °F 37.4 °F 37% 30.26 in 10.0 mi East 11.5 mph - N/A   Clear
10:50 AM 64.4 °F 37.4 °F 37% 30.27 in 10.0 mi ESE 11.5 mph - N/A   Clear
11:45 AM 66.2 °F 41.0 °F 40% 30.27 in 10.0 mi SSE 10.4 mph - N/A   Clear
12:45 PM 66.2 °F 39.2 °F 37% 30.26 in 10.0 mi SSE 12.7 mph - N/A   Clear
1:45 PM 68.0 °F 39.2 °F 35% 30.24 in 10.0 mi South 16.1 mph - N/A   Clear
2:45 PM 69.8 °F 41.0 °F 35% 30.21 in 10.0 mi South 17.3 mph - N/A   Clear
3:45 PM 69.8 °F 41.0 °F 35% 30.19 in 10.0 mi South 17.3 mph - N/A   Clear
4:45 PM 69.8 °F 41.0 °F 35% 30.19 in 10.0 mi South 17.3 mph - N/A   Clear
5:45 PM 69.8 °F 41.0 °F 35% 30.18 in 10.0 mi South 17.3 mph - N/A   Clear
6:45 PM 68.0 °F 41.0 °F 37% 30.18 in 10.0 mi South 16.1 mph - N/A   Clear
7:45 PM 66.2 °F 44.6 °F 46% 30.18 in 10.0 mi SSW 16.1 mph - N/A   Clear
8:45 PM 64.4 °F 46.4 °F 52% 30.18 in 10.0 mi SSW 10.4 mph - N/A   Clear
9:45 PM 64.4 °F 48.2 °F 56% 30.17 in 10.0 mi SSW 11.5 mph - N/A   Clear
10:55 PM 64.4 °F 50.0 °F 59% 30.18 in 10.0 mi SSW 6.9 mph - N/A   Clear
11:15 PM 64.4 °F 50.0 °F 59% 30.18 in 10.0 mi SSW 6.9 mph - N/A   Clear
11:35 PM 64.4 °F 51.8 °F 64% 30.17 in 10.0 mi SSW 9.2 mph - N/A   Clear
11:55 PM 64.4 °F 51.8 °F 64% 30.17 in 10.0 mi SSW 6.9 mph - N/A   Clear